Latest Weather Observations for Amberley

IDQ60901

Issued at 2:31 pm EST Wednesday 1 April 2015 (issued every 10 minutes, with the page automatically refreshed every 10 minutes)

About weather observations | Map of Brisbane area stations | Latest observations for Brisbane area | Other Formats
Station Details ID: 040004 Name: AMBERLEY AMO Lat: -27.63 Lon: 152.71 Height: 24.2 m
Data from the previous 72 hours. | See also: Recent months at Amberley
Date/Time
EST
Tmp

°C
App
Tmp
°C
Dew
Point
°C
Rel
Hum
%
Delta-T

°C
Wind Press
QNH
hPa
Press
MSL
hPa
Rain
since
9 am
mm
Dir
 
Spd
km/h
Gust
km/h
Spd
kts
Gust
kts
01/02:00pm 24.2 23.2 17.6 66 4.1 ESE 19 26 10 14 1019.4 - 0.0
01/01:30pm 24.0 24.4 18.1 69 3.7 E 13 20 7 11 1019.6 - 0.0
01/01:00pm 23.2 23.5 17.9 72 3.3 SE 13 20 7 11 1020.0 - 0.0
01/12:30pm 23.1 24.3 18.3 74 3.0 SSW 9 11 5 6 1020.4 - 0.0
01/12:00pm 21.8 22.9 17.9 78 2.4 SSW 9 11 5 6 1021.0 1021.0 0.0
01/11:30am 21.3 22.4 17.9 81 2.1 SSW 9 11 5 6 1021.6 - 0.0
01/11:00am 20.9 22.7 17.5 81 2.1 SSW 4 11 2 6 1022.3 - 0.0
01/10:30am 20.8 22.2 17.9 83 1.8 SSW 7 9 4 5 1022.8 - 0.0
01/10:00am 20.4 21.5 18.1 87 1.4 SSW 9 11 5 6 1022.8 - 0.0
01/09:30am 19.8 20.6 18.2 90 1.0 S 11 13 6 7 1023.1 - 0.0
01/09:00am 19.4 20.2 18.1 92 0.8 S 11 15 6 8 1023.5 1023.5 28.4
01/08:30am 19.2 20.3 18.1 93 0.7 S 9 13 5 7 1023.3 - 28.0
01/08:23am 18.9 20.0 17.9 94 0.6 S 9 13 5 7 1023.4 - 27.8
01/08:00am 18.7 19.8 17.9 95 0.5 S 9 13 5 7 1023.0 - 26.6
01/07:25am 18.5 17.8 17.3 93 0.7 SSE 17 20 9 11 1022.5 - 24.6
01/07:00am 18.5 18.3 17.7 95 0.5 SSE 15 19 8 10 1022.1 - 21.8
01/06:30am 18.5 18.0 17.7 95 0.5 SE 17 22 9 12 1022.0 - 18.8
01/05:30am 18.6 18.0 17.6 94 0.6 SE 17 22 9 12 1021.2 - 11.0
01/05:27am 18.7 18.1 17.5 93 0.7 SSE 17 22 9 12 1021.2 - 10.4
01/05:00am 18.9 19.2 17.8 93 0.7 SSE 13 17 7 9 1020.8 - 8.2
01/04:46am 18.8 18.8 18.0 95 0.5 S 15 19 8 10 1020.6 - 8.2
01/04:30am 18.7 19.0 17.9 95 0.5 S 13 17 7 9 1020.3 - 8.0
01/04:00am 18.7 19.0 18.0 96 0.4 S 13 17 7 9 1020.1 - 7.8
01/03:46am 18.7 19.8 18.0 96 0.4 SSW 9 13 5 7 1020.1 - 6.8
01/03:30am 18.8 19.5 18.0 95 0.5 SSW 11 13 6 7 1020.1 - 6.0
01/03:29am 18.8 19.5 18.0 95 0.5 SSW 11 13 6 7 1020.1 - 6.0
01/03:28am 18.8 19.9 18.1 96 0.4 SSW 9 13 5 7 1020.1 - 6.0
01/03:15am 18.8 19.9 18.1 96 0.4 SSW 9 11 5 6 1020.1 - 5.8
01/03:00am 18.8 19.9 18.1 96 0.4 SSW 9 11 5 6 1020.2 1020.1 5.8
01/02:32am 18.8 19.9 18.0 95 0.5 SSW 9 11 5 6 1020.3 - 5.6
01/02:30am 18.8 19.9 18.0 95 0.5 SSW 9 11 5 6 1020.3 - 5.6
01/02:27am 18.8 19.9 18.0 95 0.5 SSW 9 11 5 6 1020.4 - 5.4
01/02:00am 19.1 21.9 18.0 93 0.7 CALM 0 0 0 0 1020.7 - 2.0
01/01:51am 19.1 21.5 18.0 93 0.7 SSW 2 7 1 4 1020.9 - 1.2
01/01:48am 19.1 21.1 17.8 92 0.8 SSW 4 9 2 5 1020.9 - 1.0
01/01:30am 19.3 19.8 17.5 89 1.1 SSW 11 11 6 6 1020.9 - 0.4
01/01:00am 19.3 19.8 17.5 89 1.1 SSW 11 13 6 7 1021.0 - 0.4
01/12:30am 19.6 20.5 17.5 88 1.3 S 9 9 5 5 1021.4 - 0.4
 
Date/Time
EST
Tmp

°C
App
Tmp
°C
Dew
Point
°C
Rel
Hum
%
Delta-T

°C
Wind Press
QNH
hPa
Press
MSL
hPa
Rain
since
9 am
mm
Dir
 
Spd
km/h
Gust
km/h
Spd
kts
Gust
kts
31/11:30pm 19.8 20.3 17.5 86 1.4 SSW 11 13 6 7 1021.5 - 0.4
31/11:00pm 20.0 22.9 18.2 89 1.1 CALM 0 0 0 0 1022.0 - 0.4
31/10:30pm 20.0 22.8 17.9 88 1.3 CALM 0 0 0 0 1022.3 - 0.4
31/10:00pm 19.9 21.9 17.8 88 1.3 SSE 4 7 2 4 1022.5 - 0.4
31/09:30pm 19.9 20.8 17.6 86 1.4 SSE 9 11 5 6 1022.6 - 0.4
31/09:00pm 20.2 20.8 17.8 86 1.5 SSE 11 13 6 7 1022.4 1022.4 0.4
31/08:30pm 20.6 21.8 18.2 86 1.5 ESE 9 13 5 7 1022.5 - 0.4
31/07:30pm 20.7 22.3 18.3 86 1.5 E 7 9 4 5 1021.8 - 0.4
31/07:00pm 20.9 21.9 17.8 82 1.9 ESE 9 11 5 6 1021.5 - 0.4
31/06:30pm 21.0 22.0 17.8 82 2.0 SE 9 11 5 6 1021.5 - 0.4
31/05:30pm 22.1 22.2 17.4 74 2.9 E 13 19 7 10 1020.9 - 0.2
31/05:00pm 22.5 21.3 17.1 71 3.3 E 19 28 10 15 1020.6 - 0.2
31/04:30pm 23.3 22.8 17.8 71 3.4 ESE 17 24 9 13 1020.4 - 0.2
31/04:00pm 23.2 23.5 17.9 72 3.3 ESE 13 19 7 10 1020.0 - 0.2
31/03:30pm 23.4 24.0 17.6 70 3.6 SE 11 15 6 8 1020.3 - 0.2
31/03:00pm 22.8 24.2 19.5 81 2.1 SE 11 17 6 9 1020.4 1020.4 0.2
31/02:30pm 22.9 26.0 18.6 77 2.7 CALM 0 0 0 0 1020.6 - 0.0
31/02:00pm 22.4 23.9 18.1 76 2.7 SSW 7 9 4 5 1020.7 - 0.0
31/01:30pm 21.8 23.1 18.4 81 2.1 ENE 9 15 5 8 1021.1 - 0.0
31/01:07pm 23.4 22.0 17.1 67 3.9 E 20 28 11 15 1021.4 - 0.0
31/01:00pm 23.6 21.8 16.9 66 4.1 E 22 30 12 16 1021.4 - 0.0
31/12:30pm 25.0 24.0 16.5 59 5.2 E 17 22 9 12 1021.2 - 0.0
31/12:00pm 25.1 24.6 16.8 60 5.1 E 15 19 8 10 1021.6 1021.6 0.0
31/11:30am 25.0 25.0 17.1 61 4.9 E 13 19 7 10 1022.2 - 0.0
31/11:00am 24.7 25.1 17.3 63 4.6 E 11 17 6 9 1022.5 - 0.0
31/10:30am 24.2 26.0 18.7 71 3.5 ENE 7 13 4 7 1022.9 - 0.0
31/10:00am 23.3 25.2 18.9 76 2.8 E 7 9 4 5 1023.0 - 0.0
31/09:30am 22.6 23.9 18.4 77 2.6 SSE 9 9 5 5 1023.1 - 0.0
31/09:00am 21.8 23.4 17.9 78 2.4 S 6 11 3 6 1023.1 1023.1 0.0
31/08:30am 21.7 22.5 17.3 76 2.7 SSW 9 11 5 6 1023.3 - 0.0
31/08:00am 21.0 22.1 17.2 79 2.3 SSW 7 9 4 5 1023.1 - 0.0
31/07:30am 20.5 22.7 17.4 82 1.9 SSW 2 7 1 4 1022.7 - 0.0
31/07:00am 19.3 22.0 17.7 90 1.0 CALM 0 0 0 0 1022.2 - 0.0
31/06:30am 18.5 21.0 17.3 93 0.7 CALM 0 0 0 0 1022.0 - 0.0
31/06:00am 18.2 20.7 17.2 94 0.6 CALM 0 0 0 0 1021.7 1021.7 0.0
31/05:30am 18.7 21.3 17.4 92 0.8 CALM 0 4 0 2 1021.6 - 0.0
31/05:00am 18.6 21.1 17.3 92 0.8 CALM 0 0 0 0 1021.3 - 0.0
31/04:30am 18.7 21.2 17.2 91 0.9 CALM 0 0 0 0 1021.2 - 0.0
31/04:00am 18.8 21.3 17.3 91 0.9 CALM 0 0 0 0 1021.1 - 0.0
31/03:30am 19.1 21.7 17.5 90 1.0 CALM 0 0 0 0 1021.0 - 0.0
31/03:00am 19.2 21.8 17.6 90 1.0 CALM 0 0 0 0 1021.2 1021.2 0.0
31/02:30am 19.1 21.7 17.6 91 0.9 CALM 0 0 0 0 1021.4 - 0.0
31/02:00am 19.1 21.7 17.6 91 0.9 CALM 0 0 0 0 1021.9 - 0.0
31/01:30am 19.3 21.8 17.3 88 1.2 CALM 0 0 0 0 1022.1 - 0.0
31/01:00am 19.0 21.6 17.5 91 0.9 CALM 0 0 0 0 1022.4 - 0.0
31/12:30am 19.0 21.6 17.4 90 1.0 CALM 0 0 0 0 1022.7 - 0.0
31/12:00am 19.2 21.7 17.2 88 1.2 CALM 0 0 0 0 1022.7 1022.7 0.0
 
Date/Time
EST
Tmp

°C
App
Tmp
°C
Dew
Point
°C
Rel
Hum
%
Delta-T

°C
Wind Press
QNH
hPa
Press
MSL
hPa
Rain
since
9 am
mm
Dir
 
Spd
km/h
Gust
km/h
Spd
kts
Gust
kts
30/11:30pm 19.2 21.4 16.5 84 1.6 CALM 0 0 0 0 1022.8 - 0.0
30/11:00pm 19.3 20.2 16.6 84 1.6 SSW 7 7 4 4 1022.9 - 0.0
30/10:30pm 21.0 23.1 16.3 74 2.8 CALM 0 0 0 0 1023.1 - 0.0
30/10:00pm 21.4 23.5 16.2 72 3.1 CALM 0 0 0 0 1023.1 - 0.0
30/09:30pm 22.0 23.0 16.4 70 3.4 E 6 7 3 4 1023.1 - 0.0
30/09:00pm 22.2 22.5 15.9 67 3.8 E 9 11 5 6 1023.2 1023.2 0.0
30/08:30pm 22.5 21.9 15.6 65 4.1 E 13 15 7 8 1023.1 - 0.0
30/08:00pm 22.6 22.7 15.6 64 4.2 E 9 13 5 7 1022.9 - 0.0
30/07:30pm 22.7 22.1 15.7 64 4.2 E 13 15 7 8 1022.6 - 0.0
30/07:00pm 22.9 23.2 15.9 64 4.2 E 9 11 5 6 1022.5 - 0.0
30/06:30pm 22.9 23.8 16.5 67 3.9 ESE 7 13 4 7 1022.0 - 0.0
30/06:00pm 23.7 23.1 15.7 61 4.8 ENE 13 17 7 9 1021.6 1021.6 0.0
30/05:30pm 24.3 23.0 15.7 58 5.2 ENE 17 26 9 14 1021.2 - 0.0
30/05:00pm 25.0 24.3 15.4 55 5.8 NNE 13 19 7 10 1021.1 - 0.0
30/04:30pm 25.2 24.6 15.6 55 5.8 NNE 13 19 7 10 1020.8 - 0.0
30/04:00pm 26.0 24.3 14.8 50 6.7 NE 17 24 9 13 1020.5 - 0.0
30/03:30pm 26.1 25.1 15.7 52 6.3 E 15 22 8 12 1020.1 - 0.0
30/03:00pm 26.2 24.7 15.3 51 6.6 ENE 17 24 9 13 1020.1 1020.0 0.0
30/02:30pm 26.6 25.6 15.6 50 6.7 ENE 15 20 8 11 1020.2 - 0.0
30/02:00pm 26.4 26.7 15.9 52 6.4 E 9 13 5 7 1020.7 - 0.0
30/01:30pm 26.4 26.2 15.7 51 6.5 ENE 11 19 6 10 1021.1 - 0.0
30/01:00pm 26.3 25.5 17.0 56 5.8 NE 17 24 9 13 1020.8 - 0.0
30/12:30pm 26.2 26.5 17.8 60 5.3 NE 13 20 7 11 1021.6 - 0.0
30/12:00pm 25.6 25.5 17.8 62 4.9 NE 15 22 8 12 1022.5 1022.5 0.0
30/11:30am 25.3 24.5 17.2 61 5.0 NE 17 28 9 15 1022.9 - 0.0
30/11:00am 26.1 26.1 18.0 61 5.1 NE 15 20 8 11 1023.2 - 0.0
30/10:30am 25.7 26.6 18.4 64 4.6 ENE 11 17 6 9 1023.9 - 0.0
30/10:00am 24.5 26.4 18.6 69 3.7 W 6 9 3 5 1024.5 - 0.0
30/09:30am 23.4 26.3 18.3 73 3.2 CALM 0 0 0 0 1024.5 - 0.0
30/09:00am 23.0 25.3 18.5 76 2.8 SSW 4 7 2 4 1024.0 1024.0 0.0
30/08:30am 22.4 23.9 18.1 76 2.7 SSW 7 9 4 5 1024.0 - 0.0
30/08:00am 21.7 23.3 18.3 81 2.1 SW 7 9 4 5 1023.9 - 0.0
30/07:30am 20.8 22.4 18.2 85 1.6 S 7 13 4 7 1023.5 - 0.0
30/07:00am 19.6 22.5 18.1 91 0.9 CALM 0 7 0 4 1022.8 - 0.0
30/06:30am 18.5 21.1 17.5 94 0.6 CALM 0 0 0 0 1022.8 - 0.0
30/06:00am 18.5 21.0 17.3 93 0.7 CALM 0 0 0 0 1022.5 1022.5 0.0
30/05:30am 18.4 20.9 17.2 93 0.7 CALM 0 0 0 0 1022.3 - 0.0
30/05:00am 18.4 20.8 17.1 92 0.8 CALM 0 0 0 0 1022.1 - 0.0
30/04:30am 18.5 21.0 17.3 93 0.7 CALM 0 0 0 0 1021.7 - 0.0
30/04:00am 18.5 21.0 17.3 93 0.7 CALM 0 0 0 0 1021.4 - 0.0
30/03:30am 18.2 20.7 17.2 94 0.6 CALM 0 0 0 0 1021.4 - 0.0
30/03:00am 18.5 21.0 17.2 92 0.8 CALM 0 0 0 0 1021.3 1021.3 0.0
30/02:30am 18.3 20.8 17.3 94 0.6 CALM 0 0 0 0 1022.0 - 0.0
30/02:00am 18.1 20.5 16.9 93 0.7 CALM 0 0 0 0 1022.0 - 0.0
30/01:30am 17.6 19.9 16.8 95 0.5 CALM 0 0 0 0 1022.2 - 0.0
30/01:00am 18.1 20.4 16.8 92 0.8 CALM 0 0 0 0 1022.2 - 0.0
30/12:30am 17.8 20.0 16.6 93 0.7 CALM 0 0 0 0 1022.6 - 0.0
30/12:00am 18.4 20.6 16.6 89 1.1 CALM 0 0 0 0 1022.5 1022.5 0.0
 
Date/Time
EST
Tmp

°C
App
Tmp
°C
Dew
Point
°C
Rel
Hum
%
Delta-T

°C
Wind Press
QNH
hPa
Press
MSL
hPa
Rain
since
9 am
mm
Dir
 
Spd
km/h
Gust
km/h
Spd
kts
Gust
kts
29/11:30pm 17.7 19.9 16.4 92 0.8 CALM 0 0 0 0 1022.7 - 0.0
29/11:00pm 18.0 18.9 16.5 91 0.9 SSW 7 7 4 4 1023.1 - 0.0
29/10:30pm 18.7 19.6 16.7 88 1.2 S 7 9 4 5 1022.9 - 0.0
29/10:00pm 20.6 21.5 16.6 78 2.4 S 7 7 4 4 1022.8 - 0.0
29/09:30pm 20.4 21.5 16.6 79 2.3 SE 6 7 3 4 1023.0 - 0.0
29/09:00pm 21.0 23.3 16.7 76 2.6 CALM 0 6 0 3 1023.0 1023.0 0.0
29/08:30pm 22.0 22.5 16.6 71 3.3 E 9 11 5 6 1022.8 - 0.0
29/08:00pm 22.4 22.9 16.6 69 3.5 ENE 9 13 5 7 1022.7 - 0.0
29/07:30pm 23.0 23.3 16.0 64 4.2 ENE 9 13 5 7 1022.3 - 0.0
29/07:00pm 23.3 22.9 16.2 64 4.3 E 13 17 7 9 1021.8 - 0.0
29/06:30pm 23.8 22.1 15.7 60 4.9 ENE 19 26 10 14 1021.3 - 0.0
29/06:00pm 24.3 22.5 15.5 58 5.3 NE 19 26 10 14 1020.9 1020.9 0.0
29/05:30pm 25.0 23.7 15.9 57 5.5 NE 17 24 9 13 1020.7 - 0.0
29/05:00pm 26.0 24.3 15.8 53 6.2 NE 19 28 10 15 1020.2 - 0.0
29/04:30pm 26.8 24.2 16.0 51 6.6 ENE 24 30 13 16 1020.2 - 0.0
29/04:00pm 27.1 25.1 16.4 52 6.6 NE 22 33 12 18 1020.2 - 0.0
29/03:30pm 27.5 25.4 16.1 49 7.0 NE 22 30 12 16 1019.9 - 0.0
29/03:00pm 28.6 28.2 16.3 47 7.6 NE 13 28 7 15 1019.9 1019.8 0.0

Latest Capital City Observations: Canberra | Sydney | Melbourne | Brisbane | Adelaide | Perth | Hobart | Darwin

Other Formats:

Comma delimited format used in spreadsheet applications
http://www.bom.gov.au/fwo/IDQ60901/IDQ60901.94568.axf

JavaScript Object Notation format (JSON) in row-major order
http://www.bom.gov.au/fwo/IDQ60901/IDQ60901.94568.json